Regional Weather Roundup
Issued by NWS

Home | Current Version | Previous Version | Text Only | Print | Product List | Glossary Off
Versions: 1 2 3 4 5 6 7 8 9 10 11 12 13 14 15 16 17 18 19 20 21 22 23 24 25 26 27 28 29 30 31 32 33 34 35 36 37 38 39 40 41 42 43 44 45 46 47 48 49 50

684
ASUS44 KLIX 302101
RWRLA
LOUISIANA WEATHER ROUNDUP
NATIONAL WEATHER SERVICE NEW ORLEANS LA
400 PM CDT WED JUL 30 2014

NOTE: "FAIR" INDICATES FEW OR NO CLOUDS BELOW 12,000 FEET WITH NO
      SIGNIFICANT WEATHER AND/OR OBSTRUCTIONS TO VISIBILITY.
      SKY/WX - SKY CONDITION AND SIGNIFICANT WEATHER.
      TMP - AIR TEMPERATURE.    DP   - DEWPOINT TEMPERATURE.
      RH  - RELATIVE HUMIDITY.  PRES - PRESSURE.
      HX  - HEAT INDEX.         WCI  - WIND CHILL INDEX.

*  THESE STATIONS ARE NOT NWS OR FAA STATIONS AND ARE NOT UNDER
   NWS QUALITY CONTROL.

LAZ040-048-061>063-065-066-069-302200-
SOUTHEAST LOUISIANA

CITY           SKY/WX    TMP DP  RH WIND       PRES   REMARKS
N.O. AUDUBON     N/A     90  63  39 MISG        N/A
N.O. INTL ARPT MOSUNNY   87  61  41 N9        30.01F
N.O. LAKEFRONT SUNNY     84  63  49 NW8       30.02F
N.O. DOWNTOWN* FAIR      86  57  37 NW6       30.02F
SLIDELL        SUNNY     86  60  41 N8        30.00F
BATON ROUGE    SUNNY     87  63  44 NE5       30.01F
BOOTHVILLE     SUNNY     83  67  58 VRB6      30.02F
BELLE CHASSE   PTSUNNY   86  58  38 NW6       30.01F
BOGALUSA*      FAIR      86  57  37 N6        30.03F
GALLIANO*      NOT AVBL
NEW ROADS*     FAIR      85  65  50 W5        30.02S
GONZALES*      FAIR      86  61  42 E3        30.00F
HAMMOND*       SUNNY     88  55  33 N3        30.03S
HOUMA*         MOSUNNY   88  63  42 N6        30.01S
PORT FOURCHON* CLOUDY    84  70  61 VRB6      30.02F

$$

LAZ041-044-053-054-302200-
SOUTHWEST LOUISIANA

CITY           SKY/WX    TMP DP  RH WIND       PRES   REMARKS
LAKE CHARLES   MOSUNNY   87  66  49 S6        30.00F
LAFAYETTE      SUNNY     90  65  43 VRB3      30.01F
PATTERSON      SUNNY     88  68  51 N9        30.05F
SALT POINT       N/A     90  71  53 VRB6      30.00F HX  96
NEW IBERIA     SUNNY     90  66  45 N9        30.02F
CHENAULT AIRPK MOSUNNY   90  64  43 N5        30.02F

$$

LAZ027-028-302200-
CENTRAL LOUISIANA

CITY           SKY/WX    TMP DP  RH WIND       PRES   REMARKS
FORT POLK      SUNNY     89  62  40 N5        30.02F
ALEXANDRIA INT SUNNY     90  61  37 NE8       30.01F
ALEXANDRIA     SUNNY     89  64  43 E7        30.03F

$$

LAZ001-002-302200-
NORTHWEST LOUISIANA

CITY           SKY/WX    TMP DP  RH WIND       PRES   REMARKS
SHREVEPORT     CLOUDY    87  60  40 E6        30.03F
BARKSDALE AFB  PTSUNNY   83  62  48 E6        30.04F
DTN SHREVEPORT PTSUNNY   84  60  44 NE3       30.04F

$$

LAZ014-016-302200-
NORTHEAST LOUISIANA

CITY           SKY/WX    TMP DP  RH WIND       PRES   REMARKS
MONROE         MOSUNNY   88  59  37 NE7       30.06F
TALLULAH       MOSUNNY   86  58  38 NE7       30.05F

$$




USA.gov is the U.S. government's official web portal to all federal, state and local government web resources and services.